This is the latest recevied weather packets stored in our database for station/object SM0UQT-10. If no packets are shown the sender has not sent any weather packets the latest 10 day(s).
| Time | Temp. | Humidity | Pressure | Rain* | Wind** | Luminosity | Snow |
|---|---|---|---|---|---|---|---|
| 1788551628 | 10° C | 58% | 985.1 hPa | - | - | - | - |
| 1788550728 | 10° C | 58% | 985.1 hPa | - | - | - | - |
| 1788549828 | 10° C | 57% | 985.1 hPa | - | - | - | - |
| 1788548928 | 10.56° C | 57% | 985.4 hPa | - | - | - | - |
| 1788548028 | 11.11° C | 57% | 985.5 hPa | - | - | - | - |
| 1788547127 | 11.11° C | 57% | 985.6 hPa | - | - | - | - |
| 1788546227 | 11.11° C | 57% | 985.6 hPa | - | - | - | - |
| 1788545327 | 11.67° C | 57% | 985.7 hPa | - | - | - | - |
| 1788544427 | 11.67° C | 58% | 985.6 hPa | - | - | - | - |
| 1788543527 | 12.22° C | 57% | 985.8 hPa | - | - | - | - |
| 1788542627 | 12.78° C | 58% | 985.8 hPa | - | - | - | - |
| 1788541727 | 13.33° C | 58% | 985.9 hPa | - | - | - | - |
| 1788540827 | 13.89° C | 57% | 985.9 hPa | - | - | - | - |
| 1788539927 | 14.44° C | 58% | 985.9 hPa | - | - | - | - |
| 1788539027 | 14.44° C | 58% | 986.1 hPa | - | - | - | - |
| 1788538127 | 15° C | 58% | 986.1 hPa | - | - | - | - |
| 1788537227 | 15° C | 58% | 986.2 hPa | - | - | - | - |
| 1788536326 | 15.56° C | 58% | 986.3 hPa | - | - | - | - |
| 1788535426 | 15.56° C | 58% | 986.4 hPa | - | - | - | - |
| 1788534526 | 16.11° C | 58% | 986.4 hPa | - | - | - | - |
| 1788533626 | 16.67° C | 58% | 986.4 hPa | - | - | - | - |
| 1788532726 | 16.67° C | 58% | 986.6 hPa | - | - | - | - |
| 1788531826 | 17.22° C | 58% | 986.6 hPa | - | - | - | - |
| 1788530926 | 17.22° C | 58% | 986.9 hPa | - | - | - | - |
| 1788530026 | 17.22° C | 58% | 987 hPa | - | - | - | - |
* Rain since midnight (hover to see other rain measurements)
** Current wind speed in m/s (hover to see current wind gust speed)